Location: Guayaquil
(2.1667°S, 79.9000°W)
Time: 10:13:55
(UTC-05:00)

Envisat - Pass Details

Date: 15 August 2020
Orbit: 764 x 766 km, 98.1° (Epoch: 23 September)

Event Time Altitude Azimuth Distance (km) Brightness Sun altitude
Rises 05:45:07 0° 21° (NNE) 3,213 6.8 -10.0°
Reaches altitude 10° 05:47:28 10° 26° (NNE) 2,290 6.1 -9.4°
Maximum altitude 05:52:22 53° 102° (ESE) 937 3.9 -8.2°
Drops below altitude 10° 05:57:17 10° 178° (S) 2,300 5.4 -7.0°
Sets 05:59:39 0° 183° (S) 3,229 6.1 -6.4°
